Probability
0 0 0 0 0 0 0 0 0 0 0 0 0 0 0 0 0 0 0 0 0 0 0 0 0 0 0 0 0 0 0 0 0 0 0 0 0 0 0 0 0 0 0
0 0 0 0 0 0 0 0 0 0 0 0 0 0 0 0 0 0 0 0 0 0 0 0 0 0 0 0 0 0 0 0 0 0 0 0 0 0 0 0 0 0 0
0 0 0 0 0 0 0 0 0 0 0 0 0 0 0 0 0 0 0 0 0 0 0 0 0 0 0 0 0 0 0 0 0 0 0 0 0 0 0 0 0 0 0
0 0 0 0 0 0 0 0 0 0 0 0 0 0 0 0 0 0 0 0 0 0 0 0 0 0 0 0 0 0 0 0 0 0 0 0 0 0 0 0 0 0 0
0 0 0 0 0 0 0 0 0 0 0 0 0 0 0 0 0 0 0 0 0 0 0 0 0 0 0 0 0 0 0 0 0 0 0 0 0 0 0 0 0 0 0
0 0 0 0 0 0 0 0 0 0 0 0 0 0 0 0 0 0 0 0 0 0 0 0 0 0 0 0 0 0 0 0 0 0 0 0 0 0 0 0 0 0 0
0 0 0 0 0 0 0 0 0 0 0 0 0 0 0 0 0 0 0 0 0 0 0 0 0 0 0 0 0 0 0 0 0 0 0 0 0 0 0 0 0 0 0
0 0 0 0 0 0 0 0 0 0 0 0 0 0 0 0 0 0 0 0 0 0 0 0 0 0 0 0 0 0 0 0 0 0 0 0 0 0 0 0 0 0 0
0 0 0 0 0 0 0 0 0 0 0 0 0 0 0 0 0 0 0 0 0 0 0 0 0 0 0 0 0 0 0 0 0 0 0 0 0 0 0 0 0 0 0
0 0 0 0 0 0 0 0 0 0 0 0 0 0 0 0 0 0 0 0 0 0 0 0 0 0 0 0 0 0 0 0 0 0 0 0 0 0 0 0 0 0 0
0 0 0 0 0 0 0 0 0 0 0 0 0 0 0 0 0 0 0 0 0 0 0 0 0 0 0 0 0 0 0 0 0 0 0 0 0 0 0 0 0 0 0
0 0 0 0 0 0 0 0 0 0 0 0 0 0 0 0 0 0 0 0 0 0 0 0 0 0 0 0 0 0 0 0 0 0 0 0 0 0 0 0 0 0 0
0 0 0 0 0 0 0 0 0 0 0 0 0 0 0 0 0 0 0 0 0 0 0 0 0 0 0 0 0 0 0 0 0 0 0 0 0 0 0 0 0 0 0
0 0 0 0 0 0 0 0 0 0 0 0 0 0 0 0 0 0 0 0 0 0 0 0 0 0 0 0 0 0 0 0 0 0 0 0 0 0 0 0 0 0 0
0 0 0 0 0 0 0 0 0 0 0 0 0 0 0 0 0 0 0 0 0 0 0 0 0 0 0 0 0 0 0 0 0 0 0 0 0 0 0 0 0 0 0
0 0 0 0 0 0 0 0 0 0 0 0 0 0 0 0 0 0 0 0 0 0 0 0 0 0 0 0 0 0 0 0 0 0 0 0 0 0 0 0 0 0 0
0 0 0 0 0 0 0 0 0 0 0 0 0 0 0 0 0 0 0 0 0 0 0 0 0 0 0 0 0 0 0 0 0 0 0 0 0 0 0 0 0 0 0
0 0 0 0 0 0 0 0 0 0 0 0 0 0 0 0 0 0 0 0 0 0 0 0 0 0 0 0 0 0 0 0 0 0 0 0 0 0 0 0 0 0 0
0 0 0 0 0 0 0 0 0 0 0 0 0 0 0 0 0 0 0 0 0 0 0 0 0 0 0 0 0 0 0 0 0 0 0 0 0 0 0 0 0 0 0
0 0 0 0 0 0 0 0 0 0 0 0 0 0 0 0 0 0 0 0 0 0 0 0 0 0 0 0 0 0 0 0 0 0 0 0 0 0 0 0 0 0 0
0 0 0 0 0 0 0 0 0 0 0 0 0 0 0 0 0 0 0 0 0 0 0 0 0 0 0 0 0 0 0 0 0 0 0 0 0 0 0 0 0 0 0
0 0 0 0 0 0 0 0 0 0 0 0 0 0 0 0 0 0 0 0 0 0 0 0 0 0 0 0 0 0 0 0 0 0 0 0 0 0 0 0 0 0 0
0 0 0 0 0 0 0 0 0 0 0 0 0 0 0 0 0 0 0 0 0 0 0 0 0 0 0 0 0 0 0 0 0 0 0 0 0 0 0 0 0 0 0
0 0 0 0 0 0 0 0 0 0 0 0 0 0 0 0 0 0 0 0 0 0 0 0 0 0 0 0 0 0 0 0 0 0 0 0 0 0 0 0 0 0 0
0 0 0 0 0 0 0 0 0 0 0 0 0 0 0 0 0 0 0 0 0 0 0 0 0 0 0 0 0 0 0 0 0 0 0 0 0 0 0 0 0 0 0
0 0 0 0 0 0 0 0 0 0 0 0 0 0 0 0 0 0 0 0 0 0 0 0 0 0 0 0 0 0 0 0 0 0 0 0 0 0 0 0 0 0 0
Wind_Speed
12 11 11 12 12 15 16 16 15 13 8 4 3 2 2 1 1 1 2 4 5 6 5 4 5 5 6 7 8 6 7 5 5 5 2 1 1 2 3 2 3 2 2
11 12 13 14 15 15 15 15 15 14 11 7 4 4 4 3 3 2 2 1 2 4 4 5 5 6 5 6 7 7 6 4 6 6 4 2 2 3 4 3 4 4 3
10 11 13 13 13 15 15 14 15 14 13 10 6 5 5 4 4 5 3 2 1 2 4 5 4 6 6 7 8 9 11 7 6 5 7 7 7 3 3 5 4 5 4
9 9 10 11 12 12 11 12 13 13 13 12 10 7 5 3 3 3 3 2 2 2 3 4 4 4 5 6 7 8 7 8 8 5 4 4 6 6 4 3 4 5 5
7 9 9 9 9 9 9 10 11 12 13 12 12 10 8 5 4 5 5 4 2 3 3 3 4 4 5 6 6 7 8 5 7 6 4 3 2 4 6 4 4 4 4
7 8 7 7 7 7 8 8 10 11 11 11 11 10 9 8 8 7 6 5 3 2 3 4 4 5 4 6 6 7 9 8 7 6 5 6 6 6 5 5 4 4 4
7 6 6 6 6 7 8 8 9 10 10 10 10 10 9 9 9 8 7 6 5 4 4 4 4 4 5 6 6 6 7 9 9 8 7 6 5 5 5 5 5 4 3
6 5 4 4 5 7 7 8 8 9 9 9 9 9 9 7 6 8 7 7 6 5 7 6 5 6 6 6 6 6 6 7 9 9 8 6 6 5 5 6 7 5 3
4 4 4 4 5 6 6 7 7 7 7 7 7 8 8 8 8 7 7 6 7 7 9 8 7 6 6 6 6 5 6 7 8 8 9 7 6 6 6 5 6 9 8
4 3 4 4 4 4 5 5 6 6 6 6 6 5 6 6 6 6 7 7 7 8 9 9 9 8 7 6 6 6 7 7 7 6 8 9 6 6 6 5 5 6 8
3 3 3 3 3 4 4 4 4 5 5 6 5 5 5 5 6 5 6 6 6 7 7 8 8 8 8 7 6 7 8 8 8 8 9 10 8 7 6 5 5 5 5
1 1 2 2 3 3 3 3 3 4 4 4 5 5 5 5 5 6 6 7 7 7 7 7 7 8 8 8 8 8 8 9 9 9 10 11 8 11 8 7 8 7 6
4 2 1 2 3 3 3 4 4 3 3 3 4 5 5 5 5 5 6 7 7 8 8 7 7 7 8 8 8 8 9 10 10 10 11 11 11 13 9 9 9 8 6
5 3 1 1 2 2 2 3 4 4 3 4 4 5 5 6 6 6 6 7 7 8 8 8 8 8 8 9 9 9 9 10 11 11 12 12 13 13 12 11 12 9 9
5 5 3 1 1 2 1 2 3 4 4 4 6 6 7 7 8 8 8 7 7 9 8 9 10 10 9 8 10 10 10 11 12 12 13 14 16 18 15 13 11 11 11
4 5 4 3 2 2 1 1 3 3 3 4 6 7 8 9 9 9 9 10 10 9 9 10 11 12 12 19 23 18 12 12 13 14 14 14 15 18 23 25 22 20 17
2 2 3 4 3 1 1 2 3 3 4 5 7 8 9 10 10 10 11 11 11 11 14 14 13 14 17 27 28 25 16 14 15 15 15 13 12 14 14 20 26 26 31
3 3 3 2 2 2 1 2 2 3 5 7 8 8 8 10 10 10 11 12 11 13 15 17 17 19 23 31 32 30 20 17 17 17 17 17 16 15 16 14 16 19 22
4 3 1 2 2 2 2 2 3 4 6 7 8 8 8 9 11 13 14 14 14 16 16 18 18 20 24 33 36 35 17 17 20 18 18 18 19 24 27 20 19 20 20
3 1 2 2 2 3 4 4 5 6 7 7 8 9 9 10 13 15 16 15 16 19 20 21 20 20 22 31 38 39 18 19 19 17 17 21 26 27 29 21 19 22 20
1 2 2 2 3 5 5 6 6 7 6 7 9 10 9 10 13 15 15 15 17 19 19 22 21 21 23 30 37 39 22 19 19 17 15 15 28 31 32 29 20 25 19
3 4 3 3 4 5 5 7 8 8 8 8 10 10 10 11 12 13 15 14 15 18 18 19 20 17 18 23 28 35 34 32 23 20 16 16 28 31 31 26 26 31 25
4 4 3 4 4 3 4 8 9 9 10 10 11 12 12 10 11 13 15 14 13 14 16 16 17 16 15 17 29 33 35 37 26 19 26 28 31 30 24 28 30 23 15
2 2 3 5 5 4 5 5 9 9 9 12 13 13 13 13 12 11 12 12 13 14 15 16 17 17 16 15 15 15 18 24 23 19 19 26 29 27 21 16 19 15 14
2 2 3 5 7 6 6 6 7 8 11 13 14 14 13 13 13 12 11 15 14 17 20 17 17 19 18 19 29 24 18 16 19 22 17 13 11 12 12 12 12 13 13
2 3 4 6 6 7 8 7 7 7 10 13 13 12 12 12 13 14 14 21 26 32 36 35 33 24 31 38 39 38 38 38 37 27 17 15 13 13 12 12 11 12 13
Wind_Direction
51 37 28 22 23 23 23 21 18 13 18 34 43 39 4 3 33 95 133 163 168 175 173 166 171 167 176 184 174 164 160 148 137 107 95 60 147 190 181 170 153 165 150
46 36 31 29 28 27 24 24 20 17 19 25 33 38 21 19 19 33 58 94 154 171 177 178 176 174 179 191 188 170 157 153 164 141 130 155 260 248 196 183 176 176 168
48 38 34 31 28 28 26 26 22 18 16 20 30 36 29 19 12 4 7 13 359 196 190 201 194 188 188 198 198 189 173 168 192 189 156 160 193 196 210 199 185 179 176
58 49 40 35 31 25 23 29 28 24 19 20 24 28 31 18 352 343 350 351 320 300 227 220 226 209 207 213 209 204 201 168 180 219 221 173 150 151 173 219 206 191 187
70 62 51 44 35 27 27 28 31 31 26 26 24 24 21 11 0 4 3 351 318 285 297 262 243 240 221 227 225 212 215 206 188 189 176 182 191 155 144 177 204 212 205
76 68 61 54 40 32 34 32 33 33 29 31 30 27 18 9 9 5 354 345 334 299 269 280 271 259 245 229 235 224 218 226 222 211 190 170 172 185 163 155 170 196 207
74 64 55 53 46 39 38 36 36 31 26 28 30 27 23 20 20 9 357 355 350 343 310 271 263 265 263 253 240 237 226 225 231 225 222 213 201 171 164 143 149 161 180
79 73 65 59 55 50 46 42 39 32 24 26 23 21 21 21 20 12 6 359 351 341 341 329 295 272 269 269 258 250 240 230 233 242 239 229 224 205 186 160 147 146 173
107 103 86 70 59 54 51 50 48 37 27 25 25 22 19 17 16 12 10 4 356 348 341 334 328 309 284 273 271 262 254 240 234 238 246 247 236 227 213 183 165 161 176
121 108 91 82 74 64 56 55 59 48 30 25 27 24 16 14 8 5 6 0 352 350 346 341 331 321 310 291 277 270 260 252 244 235 240 245 243 240 229 216 201 186 183
116 110 107 102 101 84 63 52 56 53 31 18 13 12 6 3 358 357 354 347 341 341 342 340 333 324 313 302 288 274 266 258 254 246 241 241 235 237 232 227 222 210 186
136 132 127 112 93 87 78 56 50 64 43 14 1 352 349 351 347 344 340 335 331 327 325 326 327 323 316 306 293 283 273 262 257 251 246 243 234 234 224 218 222 221 209
188 206 97 78 73 58 55 43 31 42 39 10 352 338 336 335 328 326 324 323 321 318 315 313 310 309 308 303 292 281 274 266 259 252 250 247 235 235 224 217 218 218 220
182 184 134 5 28 24 42 26 4 4 8 358 344 329 322 319 313 307 301 299 301 304 303 302 296 291 289 290 286 282 276 271 265 257 253 249 241 238 226 223 220 211 213
183 188 189 199 291 301 353 10 339 334 346 344 332 320 317 314 309 302 295 290 287 289 287 288 288 286 283 277 278 277 272 273 272 266 259 254 249 242 231 227 220 210 214
199 185 180 193 226 262 279 309 300 308 342 326 307 302 301 298 295 294 294 294 293 290 287 282 280 279 280 285 287 283 273 268 268 269 264 258 252 250 243 235 224 214 214
290 228 205 201 199 168 84 290 285 314 318 297 287 283 281 280 280 281 283 285 288 289 292 289 285 280 278 283 284 281 276 268 265 264 264 260 251 244 245 245 238 229 225
279 268 240 207 122 84 341 295 311 311 295 285 281 280 281 285 290 291 291 292 292 290 289 288 288 287 284 285 284 283 278 269 263 259 257 258 256 244 239 237 237 235 233
273 266 186 105 64 22 16 20 332 302 288 284 287 297 307 311 311 306 303 303 301 295 291 287 285 283 284 287 288 287 281 272 266 260 255 252 254 251 244 238 236 238 238
271 132 97 75 40 38 40 360 314 299 291 298 312 321 322 317 310 306 304 302 299 295 294 290 289 287 286 287 288 288 283 275 269 263 255 249 250 251 248 239 233 236 235
186 115 86 65 55 43 16 325 306 300 309 322 320 315 313 308 301 298 296 297 295 293 291 289 287 284 284 286 286 285 280 274 272 266 259 252 254 253 249 242 235 236 231
96 72 51 30 27 21 351 312 306 315 323 319 313 308 302 297 297 292 292 290 289 289 288 287 286 284 285 287 288 287 284 280 273 267 262 255 258 256 253 248 240 237 234
79 60 27 334 338 351 334 310 314 323 320 315 309 303 299 295 292 291 293 292 287 285 287 287 288 290 289 291 294 295 294 291 284 275 269 263 259 258 257 253 246 236 226
77 42 351 316 312 325 323 308 315 321 315 308 307 306 306 302 297 292 291 290 288 286 285 285 285 285 283 282 282 281 286 290 294 293 285 277 267 261 254 248 246 232 219
63 8 319 303 304 315 313 312 313 312 307 305 305 306 303 301 299 293 286 287 279 278 284 283 281 284 284 279 281 280 278 277 279 287 288 279 269 257 250 244 232 223 214
8 319 299 295 300 307 306 306 303 300 302 306 306 305 304 301 299 298 294 290 291 292 291 290 290 289 289 293 291 288 284 283 280 279 275 272 264 256 249 240 225 215 211